Change the Weather History Date:

Friday, November 4, 2011

  Actual Average Record
Temperature  
Mean Temperature 35 °F 36 °F  
Max Temperature 46 °F 45 °F 62 °F (1999)
Min Temperature 23 °F 26 °F 12 °F (2002)
Degree Days  
Heating Degree Days 30 30  
Month to date heating degree days 150 116  
Since 1 July heating degree days 958 1169  
Cooling Degree Days 0 0  
Month to date cooling degree days 0 0  
Year to date cooling degree days 166 162  
Moisture  
Dew Point 25 °F    
Average Humidity 54    
Maximum Humidity 68    
Minimum Humidity 40    
Precipitation  
Precipitation 0.00 in 0.05 in 0.14 in (2008)
Month to date precipitation 0.34 0.21  
Year to date precipitation 7.35 10.72  
Sea Level Pressure  
Sea Level Pressure 29.65 in    
Wind  
Wind Speed 10 mph (SW)    
Max Wind Speed 22 mph    
Max Gust Speed 30 mph    
Visibility 6 miles    
Events Fog , Snow    
T = Trace of Precipitation, MM = Missing Value Source: NWS Daily Summary

Daily Weather History Graph

Daily Weather History Graph

Search for Another Location

Airport or City:

Trip Planner

Search our weather history database for the weather conditions in past years. The results will help you decide how hot, cold, wet, or windy it might be!

Date:

Astronomy

Nov. 04, 2011 Rise Set
Actual Time 7:58 AM MDT 6:16 PM MDT
Civil Twilight 7:29 AM MDT 6:44 PM MDT
Nautical Twilight 6:57 AM MDT 7:17 PM MDT
Astronomical Twilight 6:24 AM MDT 7:49 PM MDT
Moon 3:12 PM MDT (11/4) 2:10 AM MDT (11/4)
Length of Visible Light 11h 14m
Length of Day
10h 17m
Waxing Gibbous, 70% of the Moon is Illuminated
Nov 4
Waxing Gibbous
Nov 10
Full
Nov 18
Last Quarter
Nov 24
New
Dec 2
First Quarter

Hourly Weather History & Observations

Time (MDT) Temp. Windchill Dew Point Humidity Pressure Visibility Wind Dir Wind Speed Gust Speed Precip Events Conditions
12:53 AM 23.0 °F 13.1 °F 14.0 °F 68% 29.88 in 10.0 mi East 9.2 mph - N/A   Clear
1:53 AM 25.0 °F 18.1 °F 15.1 °F 66% 29.84 in 10.0 mi East 5.8 mph - N/A   Clear
2:53 AM 26.1 °F 18.4 °F 15.1 °F 63% 29.81 in 10.0 mi East 6.9 mph - N/A   Clear
3:53 AM 28.9 °F - 15.1 °F 56% 29.76 in 10.0 mi Calm Calm - N/A   Clear
4:53 AM 25.0 °F 14.8 °F 16.0 °F 69% 29.78 in 10.0 mi East 10.4 mph - N/A   Clear
5:53 AM 34.0 °F 28.8 °F 14.0 °F 44% 29.74 in 10.0 mi SSW 5.8 mph - N/A   Clear
6:53 AM 27.0 °F 18.0 °F 15.1 °F 61% 29.76 in 10.0 mi East 9.2 mph - N/A   Clear
7:53 AM 27.0 °F 21.6 °F 15.1 °F 61% 29.77 in 10.0 mi East 4.6 mph - N/A   Clear
8:53 AM 30.0 °F - 16.0 °F 56% 29.75 in 10.0 mi Calm Calm - N/A   Clear
9:53 AM 37.0 °F 33.3 °F 18.0 °F 46% 29.71 in 10.0 mi Variable 4.6 mph - N/A   Clear
10:53 AM 37.9 °F - 19.9 °F 48% 29.70 in 10.0 mi Calm Calm - N/A   Clear
11:53 AM 42.1 °F 37.1 °F 25.0 °F 51% 29.67 in 10.0 mi South 8.1 mph - N/A   Clear
1:53 PM 44.1 °F 35.7 °F 24.1 °F 45% 29.58 in 10.0 mi SSW 20.7 mph 27.6 mph N/A   Clear
2:53 PM 45.0 °F 38.9 °F 25.0 °F 46% 29.55 in 10.0 mi South 12.7 mph 21.9 mph N/A   Mostly Cloudy
3:53 PM 44.1 °F 35.7 °F 26.1 °F 49% 29.53 in 10.0 mi SSW 20.7 mph 28.8 mph N/A   Scattered Clouds
4:53 PM 39.9 °F 30.8 °F 26.1 °F 58% 29.58 in 10.0 mi SSE 18.4 mph 27.6 mph N/A   Overcast
6:53 PM 37.0 °F 27.7 °F 28.0 °F 70% 29.60 in 10.0 mi SW 16.1 mph - N/A   Overcast
7:53 PM 33.1 °F 25.5 °F 30.9 °F 92% 29.62 in 7.0 mi WSW 9.2 mph - 0.00 in Snow Light Snow
8:08 PM 33.8 °F 26.4 °F 32.0 °F 93% 29.62 in 3.0 mi WSW 9.2 mph - 0.00 in Snow Light Snow
8:17 PM 33.8 °F 25.8 °F 32.0 °F 93% 29.62 in 3.0 mi WSW 10.4 mph - 0.00 in Snow Light Snow
8:22 PM 32.0 °F 24.2 °F 32.0 °F 100% 29.62 in 1.8 mi West 9.2 mph - 0.00 in Snow Light Snow
8:27 PM 32.0 °F 24.2 °F 32.0 °F 100% 29.61 in 1.5 mi WSW 9.2 mph - 0.00 in Snow Light Snow
8:31 PM 32.0 °F 24.2 °F 32.0 °F 100% 29.61 in 1.0 mi WSW 9.2 mph - 0.00 in Snow Light Snow
8:39 PM 32.0 °F 23.6 °F 32.0 °F 100% 29.61 in 0.5 mi WSW 10.4 mph - 0.00 in Fog , Snow Snow
8:53 PM 32.0 °F 24.2 °F 32.0 °F 100% 29.60 in 0.2 mi WSW 9.2 mph - 0.00 in Fog , Snow Snow
9:53 PM 32.0 °F 25.6 °F 30.9 °F 96% 29.55 in 1.5 mi West 6.9 mph - 0.00 in Snow Light Snow
9:56 PM 32.0 °F 26.4 °F 30.2 °F 93% 29.61 in 3.0 mi WSW 5.8 mph - N/A   Overcast
10:07 PM 32.0 °F 26.4 °F 30.2 °F 93% 29.61 in 1.8 mi WSW 5.8 mph - 0.00 in Snow Light Snow
10:16 PM 32.0 °F 26.4 °F 30.2 °F 93% 29.61 in 1.2 mi West 5.8 mph - 0.00 in Snow Light Snow
10:27 PM 30.2 °F 23.4 °F 30.2 °F 100% 29.60 in 1.8 mi WSW 6.9 mph - 0.00 in Snow Light Snow
10:31 PM 30.2 °F 23.4 °F 30.2 °F 100% 29.60 in 3.0 mi WSW 6.9 mph - 0.00 in Snow Light Snow
10:37 PM 30.2 °F 23.4 °F 30.2 °F 100% 29.60 in 5.0 mi WSW 6.9 mph - 0.00 in Snow Light Snow
10:46 PM 30.2 °F 23.4 °F 30.2 °F 100% 29.60 in 6.0 mi SW 6.9 mph - 0.00 in   Overcast
10:53 PM 30.9 °F 22.8 °F 30.0 °F 96% 29.55 in 8.0 mi SW 9.2 mph - 0.00 in   Overcast
11:09 PM 30.2 °F 21.3 °F 28.4 °F 93% 29.60 in 2.5 mi SW 10.4 mph - 0.00 in Snow Light Snow
11:53 PM 30.0 °F 22.4 °F 28.9 °F 96% 29.52 in 2.5 mi SW 8.1 mph - 0.00 in Snow Light Snow